User: anonymous   Login
Location: Luz Observatory
(34.5000°N, 117.2833°W)
Time: 17:55:34
(UTC-07:00)
Language:

Cosmos 1452 Rocket - Orbit

View from above orbital plane
View from above orbital plane
View from above satellite
View from above satellite

Ground track
Ground track

The orbit data is extracted from the following two-line orbital elements,

1 13992U 83031B   17084.69863603 +.00000045 +00000-0 +24516-4 0  9991
2 13992 074.0538 160.2707 0004788 176.5994 296.4671 14.36077703776535
Epoch (UTC): 25 March 2017 16:46:02
Eccentricity: 0.0004788
inclination: 74.0538°
perigee height: 768 km
apogee height: 775 km
right ascension of ascending node: 160.2707°
argument of perigee: 176.5994°
revolutions per day: 14.36077703
mean anomaly at epoch: 296.4671°
orbit number at epoch: 77653

The dashed part of the orbit path shows where the satellite is in the earth's shadow,  

DLR